Regional Weather Roundup
Issued by NWS Jackson, KY

Home | Current Version | Previous Version | Graphics & Text | Print | Product List | Glossary On
Versions: 1 2 3 4 5 6 7 8 9 10 11 12 13 14 15 16 17 18 19 20 21 22 23 24 25 26 27 28 29 30 31 32 33 34 35 36 37 38 39 40 41 42 43 44 45 46 47 48 49 50
132
ASUS43 KJKL 260110
RWRJKL

EAST KENTUCKY HOURLY WEATHER ROUNDUP
NATIONAL WEATHER SERVICE JACKSON KY
900 PM EDT WED MAY 25 2016

NOTE: "FAIR" INDICATES FEW OR NO CLOUDS BELOW 12,000 FEET WITH
NO SIGNIFICANT WEATHER AND/OR OBSTRUCTIONS TO VISIBILITY.

* THESE REPORTS ARE NOT UNDER NWS QUALITY CONTROL AND MAY NOT
  REPORT WEATHER SUCH AS PRECIPITATION AND FOG.

KYZ079-080-083-085-087-088-110-112-115-119-120-260200
...EASTERN KENTUCKY...

CITY           SKY/WX    TMP DP  RH WIND       PRES   REMARKS
JACKSON        CLOUDY    72  60  66 CALM      30.15F
LONDON         CLOUDY    74  64  71 SW3       30.16R
SOMERSET*      CLOUDY    73  61  64 SW6       30.15S
MONTICELLO*    LGT RAIN  69  65  86 VRB5G18   30.17S
WILLIAMSBURG*  PTCLDY    72  63  73 S3        30.16S
MIDDLESBORO*   CLOUDY    73  62  66 CALM      30.17S
HARLAN APT*    MOCLDY    72  55  56 CALM      30.18S
HAZARD APT*    CLOUDY    73  61  64 CALM      30.15
PIKE CO APT*   CLOUDY    76  58  54 CALM      30.16R
BIG SANDY APT* CLOUDY    75  61  61 CALM      30.14S
MOREHEAD APT*  CLOUDY    70  63  78 S6        30.13S
ASHLAND*       MOCLDY    75  63  64 SW3       30.08S
$$

KYZ035-036-041-042-044-050-067-078-099-260200
...CENTRAL KENTUCKY...

CITY           SKY/WX    TMP DP  RH WIND       PRES   REMARKS
MT STERLING*   CLOUDY    70  64  83 SW6       30.13S
FLEMING/MASON* PTCLDY   N/A N/A N/A S6        30.11S
DANVILLE*      CLOUDY    72  61  68 SW7       30.12F
RICHMOND*      CLOUDY    73  61  64 S6        30.12S
LEXINGTON      CLOUDY    74  62  66 S10       30.10S
FRANKFORT      CLOUDY    75  62  64 S13       30.07S
LOUISVILLE     CLOUDY    75  62  64 S10       30.05S
LEBANON*         N/A     68  68 100 S10       30.10F
GLASGOW*       CLOUDY    66  66  99 CALM      30.10F
BOWLING GREEN  LGT RAIN  68  65  90 W8        30.13R
$$

KYZ091>093-OHZ055-061-077-WVZ005-015-034-035-042-260200
...SOUTHERN OHIO/WEST VIRGINIA...

CITY           SKY/WX    TMP DP  RH WIND       PRES   REMARKS
COVINGTON      CLOUDY    76  64  66 S10G20    30.05S
COLUMBUS       CLOUDY    75  58  55 SE9       30.05S
DAYTON         MOCLDY    77  61  57 S9        30.04S
WILMINGTON     MOCLDY    74  64  71 S9        30.06R
HUNTINGTON       N/A     70  65  84 SW3       30.11R
CHARLESTON       N/A     73  64  73 CALM      30.11S
PINEVILLE*       N/A     68  58  70 MISG      30.22R
BECKLEY        MOCLDY    69  55  60 S3        30.20F
BLUEFIELD      MOCLDY    71  52  50 CALM      30.23S
LOGAN CO APT*    N/A     75  61  60 CALM      30.15S
$$

VAZ002-007-008-TNZ017-027-036-066-071-260200
...SOUTHWEST VIRGINIA/EAST TENNESSEE...

CITY           SKY/WX    TMP DP  RH WIND       PRES   REMARKS
WISE*          CLOUDY    70  50  49 SW6       30.25R
JONESVILLE*      N/A     72  63  73 CALM      30.20S
ABINGDON*        N/A     74  60  62 CALM      30.21R
BRISTOL        MOCLDY    75  58  55 W5        30.19R
SEVIERVILLE*   MOCLDY    73  59  60 CALM      30.16S
KNOXVILLE      MOCLDY    79  59  50 CALM      30.15S
OAK RIDGE      MOCLDY    75  61  61 CALM      30.17R
CROSSVILLE     MOCLDY    72  60  66 CALM      30.21R
NASHVILLE      CLOUDY    67  64  90 NE3       30.16F
$$

...KEY TO REMARKS...
VSB - VISIBILITY IN MILES
WCI - WIND CHILL INDEX
HX  - HEAT INDEX

$$




USA.gov is the U.S. government's official web portal to all federal, state and local government web resources and services.